Regional Weather Roundup
Issued by NWS

Home | Current Version | Previous Version | Graphics & Text | Print | Product List | Glossary On
Versions: 1 2 3 4 5 6 7 8 9 10 11 12 13 14 15 16 17 18 19 20 21 22 23 24 25 26 27 28 29 30 31 32 33 34 35 36 37 38 39 40 41 42 43 44 45 46 47 48 49 50
000
ASUS43 KOAX 020102
RWRNE

WEATHER ROUNDUP FOR NEBRASKA
NATIONAL WEATHER SERVICE OMAHA NE
700 PM CST SUN MAR 01 2015

NOTES: SATELLITE DATA IS BEING USED TO AUGMENT CLOUD COVER ABOVE
       12000 FEET.
       "FAIR" INDICATES FEW OR NO CLOUDS BELOW 12,000 FEET WITH NO
       SIGNIFICANT WEATHER AND/OR OBSTRUCTIONS TO VISIBILITY.

  * THESE STATIONS DO NOT REPORT WEATHER SUCH AS RAIN...SNOW OR FOG.

NEZ001>004-019>022-054>056-020200-
NEBRASKA PANHANDLE

CITY           SKY/WX    TMP DP  RH WIND       PRES   REMARKS
SCOTTSBLUFF    CLEAR     28  10  46 S3        30.25R
ALLIANCE       PTCLDY    28   8  43 NW5       30.25R WCI  23
CHADRON        PTCLDY    27   9  46 NW6       30.28R WCI  20
KIMBALL        CLEAR     27  17  68 SW3       30.21S
SIDNEY         CLEAR     27  15  61 CALM      30.25S
$$

NEZ057>060-069>072-079>082-020200-
SOUTHWEST NEBRASKA

CITY           SKY/WX    TMP DP  RH WIND       PRES   REMARKS
NORTH PLATTE   CLEAR     27   8  44 N6        30.31R WCI  20
IMPERIAL         N/A     29  12  49 NE3       30.30R
LEXINGTON      PTCLDY    31  10  40 NE5       30.33R WCI  27
MCCOOK         CLOUDY    35  11  36 N5        30.33R WCI  31
$$

NEZ005>010-023>029-035>040-094-020200-
NORTH CENTRAL NEBRASKA

CITY           SKY/WX    TMP DP  RH WIND       PRES   REMARKS
VALENTINE      CLEAR     28   7  41 N7        30.33R WCI  21
AINSWORTH      CLEAR     22   8  53 N8        30.33R WCI  13
BROKEN BOW     PTCLDY    27   9  46 N7        30.32R WCI  19
ORD            PTCLDY    27   7  42 NW5       30.34R WCI  22
$$

NEZ041-046>049-061>064-073>077-083>087-020200-
SOUTH CENTRAL NEBRASKA

CITY           SKY/WX    TMP DP  RH WIND       PRES   REMARKS
GRAND ISLAND   MOCLDY    29  12  49 N5        30.37R WCI  24
AURORA         MOCLDY    32  12  44 N5        30.36R WCI  27
HASTINGS       MOCLDY    32  11  41 N5        30.34R WCI  27
HEBRON         MOCLDY    32  15  49 CALM      30.38R
HOLDREGE       MOCLDY    30   8  38 CALM      30.34R
KEARNEY *      MOCLDY    30  10  43 N7        30.34S WCI  23
$$

NEZ011>018-030>034-042>045-020200-
NORTHEAST NEBRASKA

CITY           SKY/WX    TMP DP  RH WIND       PRES   REMARKS
NORFOLK        CLEAR     31   9  39 NW7       30.36R WCI  24
ALBION         CLEAR     32   6  34 N6        30.36R WCI  26
BLAIR          CLEAR     33  15  49 NW6       30.37R WCI  27
COLUMBUS *     CLEAR     30   9  40 N3        30.38R
FREMONT        CLEAR     32  15  49 CALM      30.38R
TEKAMAH        CLEAR     28  15  58 NW6       30.38R WCI  22
$$

NEZ050>053-065>068-078-088>093-020200-
SOUTHEAST NEBRASKA

CITY           SKY/WX    TMP DP  RH WIND       PRES   REMARKS
LINCOLN        CLEAR     33  14  45 CALM      30.40R
OMAHA EPPLEY   PTCLDY    31  17  56 N3        30.39R
BEATRICE       PTCLDY    29  16  59 CALM      30.39R
FALLS CITY     CLOUDY    33  18  53 NW5       30.40R WCI  29
NEBRASKA CITY  PTCLDY    33  11  39 CALM      30.38R
$$

NEZ044-045-051>053-067-020200-
OMAHA AREA

CITY           SKY/WX    TMP DP  RH WIND       PRES   REMARKS
OMAHA EPPLEY   PTCLDY    31  17  56 N3        30.39R
BLAIR          CLEAR     33  15  49 NW6       30.37R WCI  27
FREMONT        CLEAR     32  15  49 CALM      30.38R
OFFUTT AFB     CLEAR     30  16  57 N5        30.39R WCI  25
WAHOO          FAIR      31  14  48 NW6       30.38R WCI  25
$$



USA.gov is the U.S. government's official web portal to all federal, state and local government web resources and services.